Houston, TX

5:54 AM CST on December 06, 2016 (GMT -0600)
Houston / Dunn Helistop

Weather History for KMCJ - November, 2013

Change the Weather History Date:

Tuesday, November 12, 2013

  Actual Average (KHOU) Record (KHOU)
Temperature  
Mean Temperature 60 °F 64 °F  
Max Temperature 71 °F 74 °F 85 °F (2003)
Min Temperature 48 °F 53 °F 32 °F (1987)
Degree Days  
Heating Degree Days 6 4  
Month to date heating degree days 40  
Since 1 July heating degree days 70  
Growing Degree Days 10 (Base 50)    
Moisture  
Dew Point 50 °F    
Average Humidity 72    
Maximum Humidity 82    
Minimum Humidity 52    
Precipitation  
Precipitation 0.00 in 0.15 in 4.68 in (1998)
Month to date precipitation 1.82  
Year to date precipitation 43.51  
Sea Level Pressure  
Sea Level Pressure 30.34 in    
Wind  
Wind Speed 12 mph (North)    
Max Wind Speed 26 mph    
Max Gust Speed 36 mph    
Visibility 8 miles    
Events      
T = Trace of Precipitation, MM = Missing Value Source: NWS Daily Summary

Daily Weather History Graph

Daily Weather History Graph

Search for Another Location

Airport or City:

Trip Planner

Search our weather history database for the weather conditions in past years. The results will help you decide how hot, cold, wet, or windy it might be!

Date:

Astronomy

Nov. 12, 2013 Rise Set
Actual Time 6:43 AM CST 5:27 PM CST
Civil Twilight 6:18 AM CST 5:52 PM CST
Nautical Twilight 5:50 AM CST 6:21 PM CST
Astronomical Twilight 5:21 AM CST 6:49 PM CST
Moon 2:23 PM CST (11/12) 1:56 AM CST (11/12)
Length of Visible Light 11h 33m
Length of Day
10h 43m
Waxing Gibbous, 76% of the Moon is Illuminated
Nov 12
Waxing Gibbous
Nov 17
Full
Nov 25
Last Quarter
Dec 2
New
Dec 9
First Quarter

Hourly Weather History & Observations

Time (CST) Temp. Dew Point Humidity Pressure Visibility Wind Dir Wind Speed Gust Speed Precip Events Conditions
12:15 AM 62.6 °F 53.6 °F 72% 30.19 in 6.0 mi North 4.6 mph - N/A   Clear
12:35 AM 60.8 °F 53.6 °F 77% 30.19 in 5.0 mi North 6.9 mph - N/A   Clear
12:55 AM 60.8 °F 53.6 °F 77% 30.19 in 5.0 mi North 5.8 mph - N/A   Clear
1:15 AM 60.8 °F 53.6 °F 77% 30.19 in 6.0 mi North 6.9 mph - N/A   Clear
1:35 AM 59.0 °F 53.6 °F 82% 30.20 in 5.0 mi North 8.1 mph - N/A   Clear
1:55 AM 59.0 °F 53.6 °F 82% 30.19 in 5.0 mi North 6.9 mph - N/A   Clear
2:15 AM 59.0 °F 53.6 °F 82% 30.20 in 5.0 mi North 6.9 mph - N/A   Clear
2:35 AM 59.0 °F 53.6 °F 82% 30.20 in 5.0 mi North 4.6 mph - N/A   Clear
2:55 AM 59.0 °F 53.6 °F 82% 30.20 in 5.0 mi North 5.8 mph - N/A   Clear
3:15 AM 59.0 °F 53.6 °F 82% 30.20 in 5.0 mi North 8.1 mph - N/A   Clear
3:35 AM 57.2 °F 51.8 °F 82% 30.21 in 5.0 mi North 6.9 mph - N/A   Clear
3:55 AM 57.2 °F 51.8 °F 82% 30.21 in 5.0 mi North 6.9 mph - N/A   Clear
4:15 AM 57.2 °F 51.8 °F 82% 30.22 in 5.0 mi North 8.1 mph - N/A   Clear
4:35 AM 57.2 °F 51.8 °F 82% 30.22 in 6.0 mi North 9.2 mph - N/A   Clear
4:55 AM 57.2 °F 51.8 °F 82% 30.23 in 5.0 mi North 8.1 mph - N/A   Clear
5:15 AM 57.2 °F 51.8 °F 82% 30.24 in 6.0 mi North 9.2 mph - N/A   Clear
5:35 AM 57.2 °F 50.0 °F 77% 30.25 in 6.0 mi North 10.4 mph - N/A   Clear
5:55 AM 57.2 °F 50.0 °F 77% 30.25 in 7.0 mi North 10.4 mph - N/A   Clear
6:15 AM 55.4 °F 50.0 °F 82% 30.26 in 5.0 mi North 8.1 mph - N/A   Clear
6:35 AM 55.4 °F 50.0 °F 82% 30.27 in 6.0 mi North 10.4 mph - N/A   Clear
6:55 AM 55.4 °F 50.0 °F 82% 30.27 in 5.0 mi North 9.2 mph - N/A   Clear
7:15 AM 55.4 °F 50.0 °F 82% 30.28 in 5.0 mi North 10.4 mph - N/A   Clear
7:35 AM 57.2 °F 50.0 °F 77% 30.29 in 5.0 mi North 10.4 mph - N/A   Clear
7:55 AM 57.2 °F 50.0 °F 77% 30.30 in 6.0 mi North 11.5 mph - N/A   Clear
8:15 AM 59.0 °F 50.0 °F 72% 30.31 in 7.0 mi North 11.5 mph - N/A   Clear
8:35 AM 60.8 °F 50.0 °F 68% 30.32 in 7.0 mi North 12.7 mph - N/A   Clear
8:55 AM 62.6 °F 50.0 °F 63% 30.32 in 8.0 mi North 13.8 mph 18.4 mph N/A   Clear
9:15 AM 64.4 °F 51.8 °F 64% 30.32 in 9.0 mi North 11.5 mph 18.4 mph N/A   Clear
9:35 AM 66.2 °F 51.8 °F 60% 30.33 in 10.0 mi North 16.1 mph 24.2 mph N/A   Clear
10:15 AM 68.0 °F 51.8 °F 56% 30.34 in 10.0 mi NNE 13.8 mph 24.2 mph N/A   Clear
10:35 AM 68.0 °F 50.0 °F 52% 30.33 in 10.0 mi North 18.4 mph 29.9 mph N/A   Clear
10:55 AM 69.8 °F 51.8 °F 53% 30.33 in 10.0 mi NNE 16.1 mph 26.5 mph N/A   Clear
11:15 AM 69.8 °F 51.8 °F 53% 30.33 in 10.0 mi North 16.1 mph 29.9 mph N/A   Clear
11:35 AM 69.8 °F 51.8 °F 53% 30.33 in 10.0 mi North 20.7 mph 29.9 mph N/A   Clear
11:55 AM 69.8 °F 51.8 °F 53% 30.33 in 10.0 mi NNW 21.9 mph 32.2 mph N/A   Clear
12:15 PM 71.6 °F 53.6 °F 53% 30.32 in 10.0 mi NNW 24.2 mph 33.4 mph N/A   Clear
12:35 PM 69.8 °F 53.6 °F 56% 30.31 in 10.0 mi North 23.0 mph 33.4 mph N/A   Scattered Clouds
12:55 PM 69.8 °F 53.6 °F 56% 30.32 in 10.0 mi NNW 26.5 mph - N/A   Mostly Cloudy
1:15 PM 68.0 °F 53.6 °F 60% 30.32 in 10.0 mi North 17.3 mph 27.6 mph N/A   Mostly Cloudy
1:35 PM 66.2 °F 53.6 °F 64% 30.32 in 10.0 mi North 21.9 mph 32.2 mph N/A   Mostly Cloudy
1:55 PM 66.2 °F 53.6 °F 64% 30.33 in 9.0 mi North 16.1 mph 29.9 mph N/A   Mostly Cloudy
2:15 PM 64.4 °F 53.6 °F 68% 30.33 in 9.0 mi North 23.0 mph 33.4 mph N/A   Mostly Cloudy
2:35 PM 64.4 °F 53.6 °F 68% 30.34 in 8.0 mi North 18.4 mph 25.3 mph N/A   Overcast
2:55 PM 62.6 °F 53.6 °F 72% 30.34 in 7.0 mi NNW 13.8 mph 25.3 mph N/A   Overcast
3:15 PM 60.8 °F 53.6 °F 77% 30.36 in 7.0 mi NNW 18.4 mph 25.3 mph N/A   Overcast
3:35 PM 59.0 °F 51.8 °F 77% 30.36 in 5.0 mi North 17.3 mph 27.6 mph N/A   Overcast
3:55 PM 59.0 °F 51.8 °F 77% 30.37 in 5.0 mi North 15.0 mph 24.2 mph N/A   Overcast
4:15 PM 59.0 °F 51.8 °F 77% 30.37 in 5.0 mi North 20.7 mph 28.8 mph N/A   Overcast
4:35 PM 57.2 °F 50.0 °F 77% 30.38 in 6.0 mi North 20.7 mph 31.1 mph N/A   Mostly Cloudy
4:55 PM 57.2 °F 50.0 °F 77% 30.39 in 7.0 mi North 21.9 mph 33.4 mph N/A   Overcast
5:15 PM 55.4 °F 50.0 °F 82% 30.40 in 3.0 mi North 25.3 mph 33.4 mph N/A   Overcast
5:35 PM 55.4 °F 50.0 °F 82% 30.40 in 8.0 mi North 24.2 mph 31.1 mph N/A   Overcast
5:55 PM 55.4 °F 48.2 °F 77% 30.42 in 10.0 mi North 20.7 mph 31.1 mph N/A   Overcast
6:15 PM 55.4 °F 48.2 °F 77% 30.42 in 10.0 mi North 24.2 mph 29.9 mph N/A   Overcast
6:35 PM 55.4 °F 48.2 °F 77% 30.43 in 10.0 mi North 19.6 mph 24.2 mph N/A   Overcast
6:55 PM 55.4 °F 48.2 °F 77% 30.44 in 10.0 mi North 23.0 mph 29.9 mph N/A   Overcast
7:15 PM 55.4 °F 46.4 °F 72% 30.45 in 10.0 mi North 18.4 mph 29.9 mph N/A   Overcast
7:35 PM 55.4 °F 46.4 °F 72% 30.46 in 10.0 mi North 25.3 mph 32.2 mph N/A   Overcast
7:55 PM 55.4 °F 46.4 °F 72% 30.47 in 10.0 mi North 20.7 mph 27.6 mph N/A   Overcast
8:15 PM 53.6 °F 41.0 °F 62% 30.48 in 10.0 mi North 19.6 mph 35.7 mph N/A   Scattered Clouds
8:35 PM 53.6 °F 41.0 °F 62% 30.49 in 10.0 mi North 16.1 mph 25.3 mph N/A   Partly Cloudy
8:55 PM 53.6 °F 41.0 °F 62% 30.49 in 10.0 mi NNE 18.4 mph 27.6 mph N/A   Partly Cloudy
9:15 PM 51.8 °F 41.0 °F 67% 30.50 in 10.0 mi North 18.4 mph 26.5 mph N/A   Clear
9:35 PM 51.8 °F 41.0 °F 67% 30.50 in 10.0 mi North 15.0 mph 27.6 mph N/A   Clear
9:55 PM 50.0 °F 41.0 °F 71% 30.51 in 10.0 mi North 13.8 mph 24.2 mph N/A   Clear
10:15 PM 50.0 °F 41.0 °F 71% 30.52 in 10.0 mi North 15.0 mph 28.8 mph N/A   Clear
10:35 PM 50.0 °F 41.0 °F 71% 30.52 in 10.0 mi North 13.8 mph 23.0 mph N/A   Clear
10:55 PM 50.0 °F 41.0 °F 71% 30.52 in 10.0 mi NNE 12.7 mph 20.7 mph N/A   Partly Cloudy
11:15 PM 48.2 °F 39.2 °F 71% 30.52 in 10.0 mi North 15.0 mph 20.7 mph N/A   Partly Cloudy
11:35 PM 48.2 °F 39.2 °F 71% 30.52 in 10.0 mi NNE 17.3 mph 23.0 mph N/A   Clear
11:55 PM 48.2 °F 37.4 °F 66% 30.52 in 10.0 mi NNE 20.7 mph 28.8 mph N/A   Clear